N299EZ CYEG-CYYC

Flight info

Callsign N299EZ
Flight time 0h 35m
Altitude 10000
Route CYEG/02 NONE
Aircraft B350/L-V/N

Departure

Time 2026-05-06 02:48
Airport Edmonton International Airport (CYEG)

Arrival

Time 2026-05-06 03:23
Airport Calgary International Airport (CYYC)
Time Latitude Longitude Altitude Speed Heading
2026-05-06 02:40 53.32815 -113.56770 2355 ft 0 kts
2026-05-06 02:43 53.32812 -113.56771 2355 ft 2 kts 354°
2026-05-06 02:44 53.32799 -113.56826 2355 ft 13 kts 215°
2026-05-06 02:44 53.32710 -113.56921 2355 ft 11 kts 200°
2026-05-06 02:44 53.32690 -113.57019 2354 ft 15 kts 305°
2026-05-06 02:44 53.32764 -113.57020 2355 ft 15 kts 35°
2026-05-06 02:45 53.32879 -113.56886 2355 ft 20 kts 34°
2026-05-06 02:45 53.32970 -113.56779 2356 ft 13 kts 35°
2026-05-06 02:45 53.33044 -113.56693 2356 ft 17 kts 35°
2026-05-06 02:45 53.33175 -113.56540 2357 ft 19 kts 25°
2026-05-06 02:46 53.33239 -113.56577 2357 ft 8 kts 306°
2026-05-06 02:46 53.33241 -113.56582 2357 ft 0 kts 305°
2026-05-06 02:46 53.33282 -113.56681 2356 ft 22 kts 304°
2026-05-06 02:47 53.33295 -113.56807 2356 ft 5 kts 232°
2026-05-06 02:47 53.33192 -113.56934 2354 ft 57 kts 216°
2026-05-06 02:47 53.32630 -113.57600 2402 ft 134 kts 217°
2026-05-06 02:47 53.31766 -113.58673 2702 ft 173 kts 219°
2026-05-06 02:48 53.30709 -113.60082 2825 ft 211 kts 214°
2026-05-06 02:48 53.29288 -113.60976 3256 ft 220 kts 199°
2026-05-06 02:48 53.27848 -113.61856 3800 ft 219 kts 203°
2026-05-06 02:48 53.26435 -113.62863 4157 ft 222 kts 201°
2026-05-06 02:49 53.24890 -113.63240 4449 ft 228 kts 188°
2026-05-06 02:49 53.23305 -113.63682 4723 ft 232 kts 192°
2026-05-06 02:49 53.21693 -113.64090 4921 ft 239 kts 189°
2026-05-06 02:49 53.19993 -113.64391 4837 ft 253 kts 189°
2026-05-06 02:50 53.18233 -113.64778 4906 ft 255 kts 190°
2026-05-06 02:50 53.16466 -113.65202 4915 ft 260 kts 189°
2026-05-06 02:50 53.14656 -113.65555 4767 ft 267 kts 190°
2026-05-06 02:50 53.12852 -113.66052 4977 ft 259 kts 191°
2026-05-06 02:51 53.11079 -113.66521 5078 ft 260 kts 191°
2026-05-06 02:51 53.09246 -113.66919 4876 ft 269 kts 188°
2026-05-06 02:51 53.07421 -113.67321 4750 ft 260 kts 189°
2026-05-06 02:51 53.05647 -113.67682 4619 ft 252 kts 188°
2026-05-06 02:52 53.03923 -113.68071 4453 ft 250 kts 191°
2026-05-06 02:52 53.02225 -113.68583 4339 ft 245 kts 193°
2026-05-06 02:52 53.00598 -113.69156 4226 ft 243 kts 196°
2026-05-06 02:52 52.98989 -113.69912 4291 ft 235 kts 199°
2026-05-06 02:53 52.97457 -113.70753 4405 ft 229 kts 199°
2026-05-06 02:53 52.95897 -113.71071 4438 ft 230 kts 180°
2026-05-06 02:53 52.94294 -113.70926 4442 ft 231 kts 178°
2026-05-06 02:53 52.92682 -113.70743 4439 ft 232 kts 178°
2026-05-06 02:54 52.91072 -113.70617 4444 ft 232 kts 182°
2026-05-06 02:54 52.89460 -113.70706 4442 ft 232 kts 184°
2026-05-06 02:54 52.87849 -113.70736 4443 ft 232 kts 181°
2026-05-06 02:54 52.86757 -113.70796 4448 ft 231 kts 187°
2026-05-06 02:55 52.85177 -113.71114 4449 ft 232 kts 190°
2026-05-06 02:55 52.83559 -113.71515 4445 ft 232 kts 191°
2026-05-06 02:55 52.81987 -113.71913 4442 ft 232 kts 191°
2026-05-06 02:55 52.80391 -113.72321 4441 ft 232 kts 191°
2026-05-06 02:56 52.78867 -113.72713 4442 ft 232 kts 191°
2026-05-06 02:56 52.77322 -113.73103 4441 ft 232 kts 190°
2026-05-06 02:56 52.75718 -113.73434 4439 ft 232 kts 188°
2026-05-06 02:56 52.74113 -113.73732 4442 ft 232 kts 188°
2026-05-06 02:57 52.72511 -113.74047 4443 ft 232 kts 188°
2026-05-06 02:57 52.70923 -113.74360 4441 ft 232 kts 189°
2026-05-06 02:57 52.69296 -113.74667 4440 ft 232 kts 187°
2026-05-06 02:57 52.67684 -113.74817 4440 ft 232 kts 184°
2026-05-06 02:58 52.66069 -113.74939 4440 ft 232 kts 185°
2026-05-06 02:58 52.64484 -113.75104 4440 ft 232 kts 186°
2026-05-06 02:58 52.62875 -113.75322 4440 ft 232 kts 186°
2026-05-06 02:58 52.61263 -113.75563 4440 ft 232 kts 187°
2026-05-06 02:59 52.59679 -113.75823 4443 ft 232 kts 188°
2026-05-06 02:59 52.58072 -113.76122 4441 ft 232 kts 188°
2026-05-06 02:59 52.56467 -113.76435 4443 ft 232 kts 188°
2026-05-06 02:59 52.54861 -113.76750 4441 ft 232 kts 189°
2026-05-06 03:00 52.53261 -113.77060 4441 ft 232 kts 188°
2026-05-06 03:00 52.51656 -113.77374 4440 ft 232 kts 188°
2026-05-06 03:00 52.50049 -113.77686 4439 ft 232 kts 188°
2026-05-06 03:00 52.48447 -113.77998 4441 ft 232 kts 188°
2026-05-06 03:01 52.46846 -113.78309 4442 ft 232 kts 188°
2026-05-06 03:01 52.45241 -113.78622 4441 ft 232 kts 188°
2026-05-06 03:01 52.43635 -113.78936 4442 ft 232 kts 188°
2026-05-06 03:01 52.42029 -113.79247 4442 ft 232 kts 188°
2026-05-06 03:02 52.40423 -113.79559 4443 ft 232 kts 188°
2026-05-06 03:02 52.38820 -113.79870 4441 ft 232 kts 188°
2026-05-06 03:02 52.37217 -113.80182 4443 ft 232 kts 188°
2026-05-06 03:02 52.35627 -113.80490 4440 ft 232 kts 188°
2026-05-06 03:03 52.34025 -113.80799 4441 ft 232 kts 188°
2026-05-06 03:03 52.32421 -113.81110 4441 ft 232 kts 188°
2026-05-06 03:03 52.30815 -113.81421 4442 ft 232 kts 189°
2026-05-06 03:03 52.29207 -113.81730 4442 ft 232 kts 188°
2026-05-06 03:04 52.27604 -113.82040 4441 ft 232 kts 189°
2026-05-06 03:04 52.25997 -113.82350 4440 ft 232 kts 188°
2026-05-06 03:04 52.24392 -113.82628 4440 ft 232 kts 187°
2026-05-06 03:04 52.22782 -113.82893 4441 ft 232 kts 187°
2026-05-06 03:05 52.21175 -113.83157 4442 ft 232 kts 187°
2026-05-06 03:05 52.19587 -113.83419 4442 ft 232 kts 187°
2026-05-06 03:05 52.17977 -113.83680 4442 ft 232 kts 187°
2026-05-06 03:05 52.16372 -113.83943 4440 ft 232 kts 187°
2026-05-06 03:06 52.14759 -113.84217 4442 ft 232 kts 188°
2026-05-06 03:06 52.13156 -113.84521 4441 ft 232 kts 188°
2026-05-06 03:06 52.11551 -113.84827 4441 ft 232 kts 188°
2026-05-06 03:06 52.09945 -113.85133 4442 ft 232 kts 188°
2026-05-06 03:07 52.08337 -113.85443 4442 ft 232 kts 188°
2026-05-06 03:07 52.06728 -113.85752 4441 ft 232 kts 188°
2026-05-06 03:07 52.05120 -113.86059 4441 ft 232 kts 188°
2026-05-06 03:07 52.03516 -113.86366 4441 ft 232 kts 188°
2026-05-06 03:08 52.01909 -113.86674 4442 ft 232 kts 188°
2026-05-06 03:08 52.00307 -113.86980 4440 ft 232 kts 188°
2026-05-06 03:08 51.98698 -113.87285 4442 ft 232 kts 188°
2026-05-06 03:08 51.97091 -113.87592 4439 ft 233 kts 188°
2026-05-06 03:09 51.95503 -113.87897 4440 ft 232 kts 188°
2026-05-06 03:09 51.93897 -113.88202 4441 ft 233 kts 188°
2026-05-06 03:09 51.92286 -113.88509 4442 ft 232 kts 188°
2026-05-06 03:09 51.90684 -113.88813 4441 ft 233 kts 188°
2026-05-06 03:10 51.89073 -113.89122 4443 ft 232 kts 188°
2026-05-06 03:10 51.87470 -113.89425 4442 ft 232 kts 188°
2026-05-06 03:10 51.85855 -113.89732 4441 ft 233 kts 188°
2026-05-06 03:10 51.84248 -113.90040 4439 ft 232 kts 188°
2026-05-06 03:11 51.82642 -113.90343 4442 ft 232 kts 188°
2026-05-06 03:11 51.81029 -113.90648 4443 ft 232 kts 188°
2026-05-06 03:11 51.79427 -113.90952 4441 ft 232 kts 188°
2026-05-06 03:11 51.77817 -113.91257 4441 ft 232 kts 188°
2026-05-06 03:12 51.76211 -113.91561 4444 ft 232 kts 188°
2026-05-06 03:12 51.74623 -113.91859 4441 ft 233 kts 188°
2026-05-06 03:12 51.73018 -113.92164 4442 ft 232 kts 189°
2026-05-06 03:12 51.71392 -113.92472 4440 ft 232 kts 188°
2026-05-06 03:13 51.69786 -113.92776 4441 ft 232 kts 188°
2026-05-06 03:13 51.68201 -113.93074 4440 ft 232 kts 188°
2026-05-06 03:13 51.66596 -113.93378 4440 ft 232 kts 188°
2026-05-06 03:13 51.64992 -113.93675 4441 ft 232 kts 188°
2026-05-06 03:14 51.63375 -113.93909 4440 ft 233 kts 187°
2026-05-06 03:14 51.61759 -113.94126 4441 ft 232 kts 187°
2026-05-06 03:14 51.60150 -113.94367 4441 ft 233 kts 187°
2026-05-06 03:14 51.58540 -113.94623 4442 ft 233 kts 187°
2026-05-06 03:15 51.56930 -113.94880 4441 ft 233 kts 187°
2026-05-06 03:15 51.55319 -113.95146 4440 ft 233 kts 188°
2026-05-06 03:15 51.53709 -113.95443 4441 ft 232 kts 188°
2026-05-06 03:15 51.52106 -113.95743 4441 ft 232 kts 188°
2026-05-06 03:16 51.50496 -113.96043 4442 ft 232 kts 188°
2026-05-06 03:16 51.48889 -113.96345 4442 ft 232 kts 189°
2026-05-06 03:16 51.47282 -113.96645 4441 ft 232 kts 188°
2026-05-06 03:16 51.45671 -113.96946 4440 ft 233 kts 189°
2026-05-06 03:17 51.44064 -113.97245 4441 ft 233 kts 188°
2026-05-06 03:17 51.42474 -113.97543 4441 ft 233 kts 188°
2026-05-06 03:17 51.40862 -113.97846 4440 ft 233 kts 188°
2026-05-06 03:17 51.39251 -113.98148 4442 ft 232 kts 188°
2026-05-06 03:18 51.37647 -113.98450 4441 ft 233 kts 188°
2026-05-06 03:18 51.36036 -113.98756 4442 ft 233 kts 188°
2026-05-06 03:18 51.34426 -113.99060 4441 ft 233 kts 188°
2026-05-06 03:18 51.32814 -113.99363 4442 ft 233 kts 189°
2026-05-06 03:19 51.31212 -113.99663 4440 ft 228 kts 188°
2026-05-06 03:19 51.29654 -113.99951 4443 ft 223 kts 188°
2026-05-06 03:19 51.28134 -114.00227 4441 ft 221 kts 188°
2026-05-06 03:19 51.26614 -114.00501 4441 ft 219 kts 188°
2026-05-06 03:20 51.23687 -114.01017 4441 ft 203 kts 188°
2026-05-06 03:20 51.22300 -114.01256 4440 ft 199 kts 188°
2026-05-06 03:20 51.20932 -114.01490 4439 ft 197 kts 188°
2026-05-06 03:21 51.19581 -114.01722 4436 ft 192 kts 188°
2026-05-06 03:21 51.18245 -114.01928 4302 ft 193 kts 186°
2026-05-06 03:21 51.16936 -114.02086 4194 ft 184 kts 185°
2026-05-06 03:21 51.15778 -114.02149 4168 ft 151 kts 182°
2026-05-06 03:22 51.14743 -114.02132 3939 ft 142 kts 181°
2026-05-06 03:22 51.13812 -114.02127 3741 ft 128 kts 183°
2026-05-06 03:22 51.12948 -114.02139 3566 ft 121 kts 182°
2026-05-06 03:22 51.12160 -114.02156 3546 ft 90 kts 180°
2026-05-06 03:23 51.11695 -114.02153 3543 ft 65 kts 181°
2026-05-06 03:23 51.11428 -114.02226 3547 ft 19 kts 259°
2026-05-06 03:23 51.11410 -114.02419 3548 ft 8 kts 199°
2026-05-06 03:23 51.11277 -114.02418 3549 ft 30 kts 181°
2026-05-06 03:24 51.11021 -114.02418 3552 ft 40 kts 180°
2026-05-06 03:24 51.10872 -114.02442 3553 ft 9 kts 234°
2026-05-06 03:24 51.10868 -114.02510 3552 ft 4 kts 269°
2026-05-06 03:24 51.10876 -114.02594 3552 ft 13 kts 329°
2026-05-06 03:25 51.10916 -114.02671 3551 ft 12 kts 307°
2026-05-06 03:25 51.10926 -114.02682 3551 ft 10 kts 358°
2026-05-06 03:25 51.10941 -114.02682 3550 ft 0 kts 359°